Location: Bo?a Wola
(50.4192°N, 19.7966°E)
Time: 03:35:29
(UTC+00:00)

CZ-4C R/B - Pass Details

Date: 16 September 2024
Orbit: 519 x 1471 km, 63.4° (Epoch: 09 October)

Event Time Altitude Azimuth Distance (km) Brightness Sun altitude
Exits shadow 23:51:22 35° 43° (NE) 1,275 3.5 -35.0°
Drops below altitude 10° 23:54:49 10° 44° (NE) 2,569 5.4 -34.7°
Sets 23:57:41 0° 44° (NE) 3,679 6.4 -34.6°
